Location: Sagn�
(15.2046°N, 12.7898°W)
Time: 12:22:32
(UTC+00:00)

DMSP B5D2-2 - Pass Details

Date: 08 May 2021
Orbit: 790 x 805 km, 98.3° (Epoch: 14 June)

Event Time Altitude Azimuth Distance (km) Brightness Sun altitude
Rises 19:52:59 0° 11° (NNE) 3,310 7.4 -10.4°
Reaches altitude 10° 19:55:19 10° 12° (NNE) 2,379 6.7 -11.0°
Maximum altitude 20:00:35 89° 286° (WNW) 808 4.1 -12.1°
Drops below altitude 10° 20:05:51 10° 193° (SSW) 2,375 6.4 -13.3°
Sets 20:08:11 0° 193° (SSW) 3,304 7.2 -13.8°
